Location: Newark
(55.8429°N, 38.1995°E)
Time: 15:33:17
(UTC+00:00)

N. Korean satellite - Visible Passes

Search period start: 16 October 2019 00:00
Search period end: 26 October 2019 00:00
Orbit: 455 x 508 km, 97.2° (Epoch: 15 October)

Date Brightness Start Highest point End Pass type
(mag) Time Alt. Az. Time Alt. Az. Time Alt. Az.
16 Oct 7.6 03:19:32 10° NNE 03:23:00 51° E 03:26:32 10° S visible
16 Oct 10.1 15:37:22 10° SW 15:39:22 15° W 15:41:23 10° NW visible
17 Oct 9.0 02:54:26 10° NNE 02:57:36 29° E 03:00:47 10° SSE visible
17 Oct 9.2 15:10:57 10° SSW 15:13:50 25° W 15:16:46 10° NW visible
18 Oct 9.9 02:29:40 10° NE 02:32:07 17° E 02:34:34 10° SE visible
20 Oct 8.0 03:11:44 10° NNE 03:15:12 43° E 03:18:41 10° S visible
20 Oct 9.9 15:29:06 10° SW 15:31:28 17° W 15:33:52 10° NW visible
21 Oct 9.2 02:46:44 10° NE 02:49:45 25° E 02:52:49 10° SSE visible
21 Oct 8.8 15:02:53 10° SSW 15:05:58 29° W 15:09:04 10° NNW visible
22 Oct 10.1 02:22:05 10° NE 02:24:14 15° E 02:26:23 10° SE visible
23 Oct 7.1 03:29:07 10° NNE 03:32:44 66° ESE 03:36:23 10° S visible
23 Oct 10.3 15:47:44 10° WSW 15:49:08 12° W 15:50:31 10° WNW visible
24 Oct 8.4 03:03:56 10° NNE 03:07:20 36° E 03:10:46 10° SSE visible
24 Oct 9.6 15:20:52 10° SW 15:23:32 20° W 15:26:15 10° NW visible
25 Oct 9.5 02:38:59 10° NE 02:41:52 21° E 02:44:45 10° SE visible
25 Oct 8.4 14:54:49 10° SSW 14:58:02 35° W 15:01:19 10° NNW visible
